User: anonymous   Login
Location: Cañada de la Miga
(34.7595°N, 106.2317°W)
Time: 21:31:23
(UTC+00:00)
Language:

Tiros 1 despin weight - Orbit

View from above orbital plane
View from above orbital plane
View from above satellite
View from above satellite

Ground track
Ground track

The orbit data is extracted from the following two-line orbital elements,

1 00115U 60002D   21339.36905502  .00000280  00000-0  59967-4 0  9993
2 00115  48.1655 216.6611 0034089  91.0772 269.4047 14.83921253271393
Epoch (UTC): 05 December 2021 08:51:26
Eccentricity: 0.0034089
inclination: 48.1655°
perigee height: 593 km
apogee height: 641 km
right ascension of ascending node: 216.6611°
argument of perigee: 91.0772°
revolutions per day: 14.83921253
mean anomaly at epoch: 269.4047°
orbit number at epoch: 27139

The dashed part of the orbit path shows where the satellite is in the earth's shadow,  

DLR